Regional Weather Roundup
Issued by NWS Sioux Falls, SD

Home | Current Version | Previous Version | Text Only | Print | Product List | Glossary Off
Versions: 1 2 3 4 5 6 7 8 9 10 11 12 13 14 15 16 17 18 19 20 21 22 23 24 25 26 27 28 29 30 31 32 33 34 35 36 37 38 39 40 41 42 43 44 45 46 47 48 49 50

000
ASUS43 KFSD 301910
RWRFSD

WEATHER ROUNDUP FOR SE SOUTH DAKOTA/SW MINNESOTA/NW IOWA
NATIONAL WEATHER SERVICE SIOUX FALLS SD
200 PM CDT SUN AUG 30 2015

NOTE: "FAIR" INDICATES FEW OR NO CLOUDS BELOW 12,000 FEET WITH NO
SIGNIFICANT WEATHER AND OR OBSTRUCTIONS TO VISIBILITY.


SDZ038>040-050-052>070-302000-
SOUTHEAST SOUTH DAKOTA

CITY           SKY/WX    TMP DP  RH WIND       PRES   REMARKS
BROOKINGS      MOSUNNY   75  66  73 S13       29.94F
CHAMBERLAIN    SUNNY     87  62  43 S14G21    29.83F
HURON          SUNNY     82  67  60 S13G21    29.84F
MADISON        FAIR      75  72  88 S14G20    29.94S
MITCHELL       SUNNY     83  69  62 S17       29.88F
SIOUX FALLS    SUNNY     74  64  71 S12       29.96F
WINNER         FAIR      93  53  25 S23G33    29.83F
YANKTON        SUNNY     79  68  69 SE15      29.93F
$$

MNZ071-072-080-081-089-090-097-098-302000-
SOUTHWEST MINNESOTA

CITY           SKY/WX    TMP DP  RH WIND       PRES   REMARKS
FAIRMONT       SUNNY     75  63  64 S14       30.00S
JACKSON        SUNNY     77  64  65 S14       30.00F
LUVERNE        SUNNY     75  64  69 S12       29.98F
MARSHALL       SUNNY     79  63  57 S13       29.94F
MONTEVIDEO     SUNNY     81  66  61 SW12G18   29.92F
PIPESTONE      SUNNY     75  66  73 S13       29.97S
REDWOOD FALLS  SUNNY     80  66  62 S15       29.93F
TRACY          SUNNY     78  67  68 S14G20    29.95F
WINDOM         SUNNY     77  63  61 S9        29.98F
WORTHINGTON    SUNNY     73  64  73 S14       29.99F
$$

IAZ001>003-012>014-020>022-031-032-NEZ013-014-SDZ071-302000-
NORTHWEST IOWA

CITY           SKY/WX    TMP DP  RH WIND       PRES   REMARKS
CHEROKEE       SUNNY     72  66  83 S10       30.02F
DENISON        CLOUDY    70  66  88 S12       30.03F
ESTHERVILLE    SUNNY     74  65  73 S15       30.01F
LE MARS        PTSUNNY   68  64  88 S12       30.02S
ORANGE CITY    PTSUNNY   70  64  83 S14G20    30.01F
SHELDON        SUNNY     73  66  78 S10G17    29.99F
SIOUX CITY     NOT AVBL
SPENCER        HAZE      75  65  70 S13       30.01F VSB 3/4
STORM LAKE     PTSUNNY   72  66  83 S14       30.04S
$$

ABBREVIATIONS USED IN REMARKS
   TC - TEMPERATURE IN CELSIUS
  WCI - WIND CHILL INDEX
   HX - HEAT INDEX
  VSB - VISIBILITY



USA.gov is the U.S. government's official web portal to all federal, state and local government web resources and services.